This is the latest recevied weather packets stored in our database for station/object AB8Y-13. If no packets are shown the sender has not sent any weather packets the latest 10 day(s).
| Time | Temp. | Humidity | Pressure | Rain* | Wind** | Luminosity | Snow |
|---|---|---|---|---|---|---|---|
| 1777722132 | 1.67° C | 87% | 1018.6 hPa | 0 mm | - | 92 W/m² | - |
| 1777721829 | 1.11° C | 95% | 1018.6 hPa | 0 mm | - | 83 W/m² | - |
| 1777721527 | 0.56° C | 95% | 1018.6 hPa | 0 mm | - | 68 W/m² | - |
| 1777721225 | -0.56° C | 95% | 1018.6 hPa | 0 mm | - | 66 W/m² | - |
| 1777720922 | -0.56° C | 95% | 1018.7 hPa | 0 mm | - | 34 W/m² | - |
| 1777720619 | -1.11° C | 95% | 1018.6 hPa | 0 mm | - | 38 W/m² | - |
| 1777720317 | -1.11° C | 95% | 1018.6 hPa | 0 mm | - | 35 W/m² | - |
| 1777720015 | -1.67° C | 94% | 1018.7 hPa | 0 mm | - | 24 W/m² | - |
| 1777719712 | -1.67° C | 94% | 1018.4 hPa | 0 mm | - | 21 W/m² | - |
| 1777719409 | -1.67° C | 94% | 1018.4 hPa | 0 mm | - | 19 W/m² | - |
| 1777719106 | -1.67° C | 94% | 1018.5 hPa | 0 mm | - | 16 W/m² | - |
| 1777718803 | -1.67° C | 94% | 1018.4 hPa | 0 mm | - | 14 W/m² | - |
| 1777718501 | -1.67° C | 94% | 1018.4 hPa | 0 mm | - | 10 W/m² | - |
| 1777718198 | -1.67° C | 94% | 1018.3 hPa | 0 mm | - | 7 W/m² | - |
| 1777717896 | -1.11° C | 94% | 1018.3 hPa | 0 mm | - | 5 W/m² | - |
| 1777717592 | -1.11° C | 94% | 1018.4 hPa | 0 mm | - | 3 W/m² | - |
| 1777717289 | -1.11° C | 94% | 1018 hPa | 0 mm | - | 2 W/m² | - |
| 1777716987 | -1.11° C | 94% | 1018.1 hPa | 0 mm | - | 1 W/m² | - |
| 1777716685 | -1.11° C | 94% | 1018.3 hPa | 0 mm | - | 0 W/m² | - |
| 1777716384 | -1.11° C | 94% | 1018.2 hPa | 0 mm | - | 0 W/m² | - |
| 1777716082 | -0.56° C | 94% | 1018.1 hPa | 0 mm | - | 0 W/m² | - |
| 1777715780 | -0.56° C | 94% | 1018.1 hPa | 0 mm | - | 0 W/m² | - |
| 1777715476 | -0.56° C | 94% | 1018.2 hPa | 0 mm | - | 0 W/m² | - |
| 1777715173 | -0.56° C | 94% | 1018.1 hPa | 0 mm | - | 0 W/m² | - |
| 1777714872 | -0.56° C | 94% | 1018 hPa | 0 mm | - | 0 W/m² | - |
* Rain latest hour (hover to see other rain measurements)
** Current wind speed in m/s (hover to see current wind gust speed)